Theta_e
292 291 290 291 290 289 290 290 290 291 292 292 293 293 290 289 286 283 282 282 281 283 286 283 284 288 288 288 288 288 288 290 290 289 289 289 289 291 294 295 297 297 297 298 298 298 298 299 299 299 300 300 301 302 302 302 302 304 304 305 307 307 308 308 308 308 308 308 308 309 308 308 309 310
290 290 288 287 286 285 286 287 287 288 289 290 290 291 292 291 287 286 283 282 283 283 283 285 284 286 287 287 287 287 287 289 289 288 288 288 288 291 292 293 294 295 296 296 296 296 298 298 298 298 298 299 300 301 301 301 302 303 304 306 306 306 307 307 308 307 307 307 307 307 308 308 308 308
286 284 284 284 284 283 283 284 283 283 284 286 288 289 290 289 289 286 285 282 283 283 283 284 284 285 286 286 286 287 286 288 288 287 287 287 289 290 289 291 292 294 295 296 296 297 298 298 298 298 297 299 299 299 299 299 300 301 302 303 304 304 304 303 303 305 305 306 306 306 307 308 309 309
283 283 283 283 283 282 281 281 281 281 282 284 285 287 288 287 286 287 285 283 282 285 283 284 285 284 285 286 285 285 286 287 288 286 286 287 288 287 287 289 291 292 294 294 294 295 296 296 296 297 297 297 298 298 298 298 299 300 300 301 302 302 302 301 302 304 304 304 305 304 305 304 307 308
282 282 282 282 282 281 281 281 281 281 281 281 282 282 283 284 283 284 283 282 281 282 283 283 283 284 284 284 284 284 284 285 286 287 286 286 286 286 286 287 289 290 291 292 292 294 294 295 295 295 295 295 296 296 297 297 298 298 299 299 299 300 301 302 302 302 302 302 303 303 304 303 305 305
281 281 281 281 281 281 281 281 281 280 280 280 280 280 280 280 280 282 283 282 281 279 282 281 283 283 282 282 284 283 283 283 285 284 285 285 286 285 286 286 286 289 290 291 292 293 293 293 294 294 293 294 294 296 297 296 296 297 297 297 297 297 299 300 300 300 300 300 300 303 302 302 303 304
281 281 281 280 281 281 280 281 281 280 280 280 280 280 280 280 280 280 281 281 280 279 279 282 281 281 282 282 282 283 284 284 284 284 284 284 285 285 285 285 286 288 290 291 292 292 292 293 293 293 294 294 294 295 295 295 295 296 296 296 296 296 297 297 298 299 299 299 300 301 300 301 301 304
281 280 280 280 280 280 280 280 280 279 279 279 279 279 280 279 280 280 280 280 280 280 279 280 280 281 281 282 283 283 284 283 283 283 283 284 284 284 285 285 285 287 290 290 290 291 292 292 292 293 293 293 293 293 293 294 294 294 294 294 295 295 295 295 295 295 296 298 299 301 300 301 302 302
281 281 280 281 280 280 280 279 279 279 279 279 279 279 279 279 280 280 280 280 280 280 279 280 281 281 281 282 282 282 282 282 282 282 282 282 283 283 284 285 285 287 289 288 289 289 290 291 292 292 293 293 293 293 293 293 293 292 293 293 293 294 295 295 295 295 295 296 297 299 300 301 301 301
280 281 280 281 280 280 279 279 279 279 279 279 279 279 279 279 279 279 280 281 281 280 280 280 279 280 280 280 281 282 281 280 279 280 282 282 282 282 282 283 284 284 285 285 285 287 288 289 291 291 290 291 291 291 292 292 292 291 292 292 293 294 294 295 294 295 294 295 296 297 298 300 301 301
280 280 279 279 279 279 278 279 279 279 279 279 279 279 279 280 280 280 281 281 280 280 279 279 280 279 280 280 279 280 281 281 280 279 279 280 282 283 282 281 283 284 284 286 288 288 288 288 287 288 289 290 290 290 291 291 291 291 291 292 293 293 294 294 294 294 294 294 295 296 297 298 300 301
280 280 280 279 278 278 278 278 279 279 279 279 278 279 279 280 281 280 280 280 280 279 279 279 278 278 278 279 279 280 280 278 278 280 280 278 279 280 282 282 282 283 284 283 284 286 286 286 286 287 288 288 289 289 289 289 289 289 291 292 293 293 294 295 294 294 294 294 294 296 298 298 299 301
279 278 278 278 278 279 281 282 281 282 282 280 279 280 281 280 280 280 280 279 279 279 278 278 279 278 277 278 278 277 277 277 277 279 280 279 280 281 280 281 283 284 283 283 283 283 283 283 283 283 283 284 286 286 288 288 288 290 292 292 292 293 293 293 294 294 294 294 294 295 297 299 299 298
278 279 277 278 280 281 281 280 281 281 282 282 282 281 281 280 280 280 279 278 278 278 277 277 277 277 276 277 277 277 278 279 279 279 279 278 280 280 280 281 283 284 283 282 281 282 283 283 283 283 283 284 285 285 285 286 288 290 292 292 292 292 293 293 294 294 293 293 293 294 297 298 296 295
277 277 277 277 278 278 279 278 280 281 281 282 283 283 283 283 281 279 278 278 279 278 277 278 277 277 276 277 278 279 279 280 279 279 279 279 279 278 278 276 280 284 283 281 280 281 284 283 282 283 283 284 285 285 285 289 290 291 291 291 291 291 292 293 293 293 292 292 291 290 291 291 291 290
276 276 276 276 277 277 277 277 277 278 281 282 283 283 283 283 283 283 281 279 278 278 277 277 277 277 277 278 279 279 279 279 279 279 279 279 279 277 277 277 277 282 284 281 280 280 283 284 283 282 283 284 285 285 288 290 290 291 291 291 291 291 292 292 293 293 292 291 290 291 290 291 291 290
277 276 276 275 277 276 278 276 277 278 279 282 283 283 282 282 282 282 283 283 281 280 278 277 277 277 278 277 278 280 279 280 279 279 279 279 278 278 278 278 279 281 283 281 280 279 282 283 282 282 284 284 284 285 287 289 290 291 290 290 290 291 290 291 293 293 293 291 290 291 291 291 291 290
276 275 275 275 275 275 276 277 277 279 281 281 280 280 279 278 279 280 281 281 281 280 279 278 277 279 279 278 279 280 280 279 278 278 277 277 277 278 278 280 280 282 283 280 280 279 281 283 282 282 283 284 284 284 286 289 289 289 289 289 289 290 289 290 289 290 291 291 291 291 290 290 290 290
276 276 276 275 274 275 276 277 280 281 280 280 278 277 277 278 278 277 277 277 278 279 280 279 279 279 279 279 279 280 281 281 280 279 278 278 279 280 281 281 281 281 283 282 281 277 281 283 281 281 282 283 282 282 285 286 287 288 289 290 290 289 288 290 290 290 290 290 290 290 289 289 289 288
277 276 275 274 274 275 276 279 282 282 280 278 277 276 277 276 275 274 277 280 281 280 280 280 279 278 279 281 281 281 281 279 279 279 280 280 279 278 277 276 278 278 281 282 281 278 279 282 281 281 282 282 280 282 280 282 284 287 289 291 290 289 290 290 290 290 289 289 289 289 288 288 288 287
276 276 275 275 275 276 277 280 282 282 281 278 277 276 274 273 272 273 274 279 281 281 281 281 281 282 282 282 282 282 282 280 281 278 275 275 276 274 273 274 276 277 280 281 281 279 277 280 280 279 280 280 280 279 276 277 282 287 290 291 290 289 290 290 289 289 289 289 288 288 288 287 286 285
276 276 276 276 276 277 278 281 281 281 280 277 277 275 273 271 272 274 277 278 278 279 279 279 279 280 280 279 279 280 281 281 279 275 272 275 275 273 274 273 275 277 279 280 282 278 277 279 279 277 278 279 276 274 276 278 279 283 288 289 289 289 289 289 289 288 288 288 287 286 286 285 283 281
275 274 275 277 277 278 280 281 281 281 279 277 276 273 272 272 273 275 277 276 274 273 273 273 274 273 275 274 274 276 279 278 277 276 275 276 274 273 273 274 275 274 276 280 282 276 276 276 277 276 275 274 277 274 275 275 276 278 284 286 286 288 288 288 288 288 287 286 285 285 284 283 282 278
273 273 274 276 278 280 280 280 280 280 280 277 275 274 272 273 273 276 275 274 273 272 271 271 271 271 272 273 274 274 273 274 275 275 275 275 275 274 274 275 275 274 275 279 282 277 277 277 274 276 275 273 273 276 275 274 275 277 281 285 284 286 286 286 285 286 285 285 285 284 283 283 281 277
272 272 273 275 278 279 279 279 279 279 279 278 275 274 274 275 276 276 272 270 272 269 269 269 270 271 271 272 272 271 272 273 274 274 275 275 276 275 275 275 275 275 277 280 282 278 274 274 273 274 275 275 274 273 274 274 275 275 278 281 281 282 281 281 282 281 283 284 284 284 283 282 281 278
273 274 275 275 277 278 278 278 278 278 277 277 275 275 277 277 276 272 270 268 268 268 268 268 269 269 269 269 269 270 270 271 272 273 273 275 276 277 278 277 276 275 276 280 281 276 273 272 273 272 273 274 274 273 272 272 274 275 276 277 278 278 279 278 278 277 278 278 279 281 281 282 281 281
273 274 275 276 277 277 276 277 277 276 276 274 274 276 276 275 274 270 267 267 266 266 267 268 267 268 268 267 267 268 269 270 272 273 274 275 276 277 278 279 279 278 278 278 277 275 273 272 274 272 272 273 273 272 271 269 271 274 273 274 275 276 277 277 276 277 278 278 279 282 282 282 281 281
274 275 275 275 276 275 275 275 275 274 273 274 274 274 274 272 270 266 265 265 265 266 266 266 266 266 267 267 267 268 269 270 272 273 274 275 276 276 277 278 278 277 277 276 273 272 272 271 271 273 273 273 273 273 269 270 271 271 271 273 273 274 275 275 274 274 274 274 274 274 273 273 274 275
275 276 275 274 274 274 274 273 272 271 271 273 272 272 271 268 263 264 263 264 264 264 264 264 265 265 266 266 267 269 270 272 273 273 273 275 276 277 277 277 276 276 274 272 270 269 270 270 270 271 272 274 274 273 271 269 270 270 271 271 269 270 272 273 273 272 272 272 272 272 271 272 272 272
275 273 273 272 272 271 271 269 266 266 266 270 270 270 268 263 263 263 262 263 263 263 263 264 264 264 265 266 267 269 271 271 271 272 272 273 274 275 275 274 273 273 268 270 270 270 270 270 270 270 272 274 274 271 271 270 268 268 269 268 268 270 270 271 270 270 270 269 269 269 269 270 270 270
268 269 269 268 270 269 270 269 268 267 267 265 264 263 262 262 261 262 262 263 263 263 263 263 264 264 266 267 268 268 269 269 270 272 272 272 272 273 273 272 271 271 271 268 269 270 270 270 271 271 272 272 271 271 271 270 268 268 268 269 269 266 267 269 269 268 268 268 268 268 268 268 268 269
265 262 268 266 264 263 262 261 260 260 260 262 262 261 260 260 262 264 266 265 264 264 264 264 265 265 266 265 266 266 267 268 270 271 271 271 271 272 272 271 270 270 270 270 268 269 271 271 271 271 271 271 270 270 270 269 268 267 266 267 267 267 268 267 267 267 268 267 266 265 266 266 266 266
261 261 260 260 260 260 260 260 259 258 259 260 260 259 259 259 260 260 260 260 261 262 263 263 264 264 264 264 265 265 265 267 268 269 269 270 270 271 272 270 269 269 267 267 267 268 270 271 272 271 270 270 270 270 269 266 266 267 267 266 266 266 266 267 267 266 267 266 264 264 264 265 266 266
255 258 257 258 258 259 258 258 258 258 258 258 259 259 262 261 259 260 260 260 261 262 263 263 263 263 263 263 264 264 265 265 266 268 270 269 271 270 270 269 268 268 266 265 265 266 268 270 271 271 271 270 270 270 269 267 266 266 266 266 266 265 266 266 267 267 266 265 264 262 262 263 265 266
256 257 257 257 257 257 257 257 257 258 258 258 258 258 259 258 260 261 260 260 261 262 262 263 263 263 263 263 264 264 264 265 265 266 269 270 270 269 269 268 268 267 265 264 264 265 267 269 269 269 269 269 268 269 272 270 266 266 265 265 265 265 264 265 265 265 265 265 265 262 262 262 263 265
257 255 255 256 256 257 256 257 258 257 257 257 257 258 258 258 259 259 259 261 261 261 262 262 263 262 262 263 263 264 264 265 265 266 267 268 269 269 269 268 267 266 264 263 263 265 266 268 269 268 266 266 265 263 263 270 270 266 265 263 264 264 264 265 265 265 264 264 264 263 261 260 262 264
256 255 256 255 256 256 255 255 256 256 256 256 257 257 258 258 258 259 260 261 260 261 262 263 262 262 262 263 263 263 264 264 264 266 267 268 269 269 268 267 266 264 262 263 263 265 266 267 268 268 267 265 263 260 261 265 269 270 266 264 264 264 264 264 263 263 263 264 263 263 262 262 262 263
254 255 255 256 256 255 256 256 256 256 256 256 257 257 257 257 258 259 260 259 260 261 262 262 262 262 262 263 262 262 263 264 265 266 267 268 268 267 267 266 265 263 261 262 263 264 264 265 265 267 267 264 262 261 261 263 263 266 269 266 264 263 264 263 262 261 261 262 262 263 263 262 262 263
254 254 256 254 255 255 254 255 255 255 255 255 256 257 257 257 258 258 259 259 260 261 261 261 262 263 262 262 262 263 263 263 264 265 266 267 268 267 266 265 264 263 261 261 261 261 261 262 262 263 264 265 263 263 263 261 261 264 268 268 266 264 264 263 261 261 261 261 261 262 263 265 267 270
255 256 254 254 254 254 254 254 254 254 254 255 256 256 256 257 257 258 258 259 260 261 261 261 262 262 262 262 262 263 263 264 265 266 267 267 267 267 266 265 264 263 262 260 259 259 260 261 262 263 262 262 264 264 264 264 264 265 266 268 269 266 264 263 262 261 261 262 262 262 261 262 261 261
254 253 253 254 253 253 253 253 253 254 254 255 255 257 257 256 257 257 259 261 261 260 260 261 261 262 262 262 262 263 263 264 265 266 267 267 266 266 266 265 262 262 261 260 258 259 261 262 264 267 264 264 265 266 264 262 260 261 263 265 269 269 268 266 264 262 261 262 262 261 260 260 260 260
253 253 253 252 251 252 252 252 253 253 253 254 254 255 256 257 257 260 260 260 260 260 260 260 261 261 261 262 262 263 263 264 265 266 266 266 265 265 264 262 259 259 258 258 258 260 262 264 265 266 265 265 264 262 260 260 259 260 262 263 265 269 269 268 267 266 263 262 260 259 258 258 258 258
255 253 252 253 253 253 252 253 253 253 254 254 254 255 255 256 256 257 257 259 260 260 260 260 260 261 261 262 262 263 263 264 265 266 266 265 264 263 262 260 259 258 257 258 260 261 261 262 263 264 264 263 263 262 260 260 261 261 261 262 263 264 266 269 269 268 268 268 267 263 260 260 259 257
252 251 252 251 251 252 251 252 252 253 254 253 254 254 255 255 256 257 258 258 259 259 260 260 260 260 260 261 262 263 263 264 265 265 265 264 264 262 261 259 259 258 258 259 259 260 260 262 262 263 262 261 262 261 260 260 260 261 261 262 262 263 263 264 265 268 269 270 270 269 269 268 268 268
253 252 252 251 251 252 252 252 252 252 252 253 254 254 256 255 256 257 257 258 259 260 260 260 260 260 261 261 262 262 263 265 265 265 265 263 262 261 259 258 257 257 257 258 258 259 260 260 261 262 262 261 261 261 261 261 260 260 261 261 260 260 259 261 262 262 262 262 267 271 270 270 270 269
Wind_Speed
4 5 6 5 3 3 2 2 3 3 4 4 4 4 3 4 4 8 8 15 4 4 0 2 4 5 8 9 8 6 7 10 12 9 10 11 11 16 25 27 28 28 28 28 29 31 31 32 32 32 32 32 32 33 34 35 35 34 34 35 36 37 35 36 35 36 34 35 35 35 33 33 34 34
4 4 5 4 3 3 4 4 4 4 4 4 4 4 4 3 4 3 7 13 3 6 1 1 5 10 9 5 9 8 8 12 13 9 10 12 12 21 25 25 25 27 29 29 30 31 32 32 32 32 32 32 33 34 34 35 35 35 36 36 37 36 36 35 35 34 34 35 32 32 36 32 36 35
4 3 4 4 4 4 5 4 4 3 3 3 3 3 3 3 3 5 6 8 5 6 11 6 3 9 15 10 9 8 7 10 15 13 12 12 17 20 18 22 24 27 29 31 30 31 32 34 34 35 34 34 34 35 35 35 35 36 36 36 36 35 35 35 34 33 33 32 35 33 33 33 32 35
4 5 6 4 4 3 3 4 4 4 3 3 3 3 2 2 2 3 6 8 17 11 6 12 10 5 12 13 10 14 12 10 13 11 12 15 18 12 12 20 24 26 29 30 31 33 35 34 35 35 35 35 36 36 36 35 35 35 35 35 35 34 35 35 34 34 32 32 31 32 32 34 32 33
5 5 4 3 3 3 4 3 3 3 3 3 3 2 2 3 3 3 5 9 14 16 2 5 9 10 10 12 10 13 14 16 15 12 10 12 12 12 11 13 20 24 26 31 34 33 32 33 33 33 33 34 35 35 34 34 34 33 33 33 34 34 34 34 32 34 34 33 33 31 33 34 33 32
3 3 4 4 4 3 3 3 4 3 3 3 3 3 2 3 4 3 4 6 9 17 17 12 9 8 4 10 9 11 14 15 15 18 15 11 12 11 11 11 13 22 29 31 32 33 35 34 33 33 33 34 34 34 33 33 32 32 32 33 33 34 33 32 31 31 32 33 32 32 32 33 33 33
3 4 4 4 4 3 4 3 3 3 3 3 3 4 3 3 4 4 3 5 10 13 17 14 12 11 11 9 11 11 10 11 13 16 16 15 13 12 13 13 12 18 28 30 32 35 35 33 33 33 32 32 33 33 34 32 32 31 33 33 34 34 32 33 31 30 31 32 32 32 34 31 33 35
4 4 4 4 4 3 4 3 3 3 3 3 3 3 3 3 5 4 4 4 6 10 13 16 14 12 13 14 11 10 11 12 12 11 14 13 12 13 13 12 14 17 29 31 32 32 32 31 31 31 32 33 32 34 32 33 31 32 33 35 34 35 33 30 32 32 31 31 32 31 33 36 31 33
4 4 4 3 3 4 4 4 5 4 5 4 3 4 4 4 4 4 4 5 5 8 12 15 14 13 11 10 12 8 11 14 11 13 13 13 14 14 13 10 9 16 25 27 27 26 27 27 28 30 32 32 34 33 33 31 32 31 33 32 33 33 33 32 32 31 31 31 30 31 32 35 35 33
4 4 4 4 4 4 5 5 5 5 5 5 5 5 5 5 4 5 5 5 6 8 10 11 15 13 13 14 12 12 10 11 13 11 12 14 12 13 16 15 11 8 10 13 15 16 16 20 26 29 31 32 32 34 33 33 32 32 30 31 31 32 32 33 34 32 33 31 30 33 34 33 36 37
4 4 4 4 4 4 4 4 5 5 5 4 5 5 5 5 6 7 7 7 8 8 10 10 9 13 11 9 14 12 10 12 11 13 12 14 12 13 15 16 13 12 13 16 21 21 18 18 16 23 29 29 30 30 31 30 33 31 30 31 32 32 32 31 30 32 29 32 32 35 34 32 31 36
4 4 4 4 4 4 3 3 4 4 5 4 4 5 4 6 7 7 7 8 8 9 9 9 11 9 12 11 7 10 10 11 9 7 11 15 17 15 14 15 17 13 13 14 15 15 16 15 16 20 22 22 24 27 26 25 25 27 29 30 33 32 33 32 32 29 34 33 37 31 30 30 30 34
4 4 4 4 4 4 6 10 9 8 8 5 5 5 5 6 7 7 7 7 8 8 10 10 8 10 12 9 10 12 12 12 13 12 12 14 12 14 14 14 11 8 13 14 12 14 12 15 13 13 13 15 20 20 25 23 24 24 26 31 33 34 31 29 31 34 32 35 21 26 27 37 21 13
4 4 3 4 7 7 7 9 10 10 9 9 7 7 6 7 7 8 8 7 7 8 10 9 10 13 14 14 10 12 11 12 12 13 12 14 14 12 14 14 12 12 10 13 15 14 11 13 14 13 12 14 15 13 13 13 19 23 30 31 32 31 33 32 34 30 32 9 18 22 17 26 37 31
4 4 3 3 3 3 4 4 9 10 10 11 11 12 12 10 9 9 10 9 8 9 9 10 9 8 14 15 10 10 12 12 13 13 12 12 11 13 14 19 14 6 12 14 15 17 14 12 14 14 13 14 14 14 14 22 27 30 33 34 32 31 31 34 33 35 3 14 18 23 28 30 29 32
3 3 3 3 3 3 4 4 4 6 10 12 13 13 13 13 14 13 10 10 10 10 10 11 10 9 10 14 11 10 10 12 13 12 13 12 12 15 15 14 15 13 12 14 14 16 13 13 13 12 11 12 13 16 21 26 28 29 29 30 30 29 32 32 25 5 20 19 22 23 27 31 32 31
3 3 3 3 4 4 7 5 5 6 6 9 12 13 13 13 14 14 15 14 11 9 10 11 13 11 11 14 12 10 13 13 16 15 12 10 11 15 15 15 15 15 12 12 13 16 14 12 13 12 12 11 13 15 18 26 29 28 27 27 25 26 22 18 15 20 25 28 27 27 26 25 26 30
3 3 3 4 5 4 5 5 6 7 7 7 7 7 7 6 9 12 13 14 15 12 10 10 12 12 10 14 14 14 15 14 14 13 14 15 15 15 16 17 16 14 10 11 11 13 13 11 12 13 12 11 13 14 19 28 28 28 29 27 23 21 8 17 20 24 26 27 28 29 29 29 27 28
2 2 3 2 3 4 5 6 9 9 8 8 7 7 7 7 6 7 7 6 6 6 7 9 10 12 12 12 13 13 11 12 12 13 16 15 13 15 14 13 13 14 10 11 10 14 13 10 14 14 12 13 14 13 16 23 27 28 28 26 20 12 4 20 21 23 25 25 27 27 27 29 29 30
3 2 2 2 3 4 6 8 15 13 10 7 9 9 7 6 5 5 7 11 12 11 10 9 10 11 14 18 16 15 15 13 12 13 12 11 11 12 12 13 11 11 9 11 12 11 11 11 12 14 12 12 13 13 11 17 26 28 31 25 9 5 15 24 25 24 25 27 29 30 30 31 31 30
3 2 2 2 3 4 5 10 16 16 14 8 10 10 11 9 8 7 5 9 14 16 18 20 22 23 23 22 23 24 24 17 13 11 13 12 12 13 14 13 12 12 11 9 6 10 13 11 11 14 12 12 13 10 10 12 20 28 29 7 14 19 21 22 27 27 28 29 29 30 31 31 30 29
3 3 5 5 4 5 6 13 15 16 11 8 9 10 12 13 12 10 9 8 7 11 14 15 16 16 17 19 21 21 18 18 16 10 11 13 12 13 12 14 13 12 10 7 10 13 10 11 10 12 12 11 5 5 8 11 15 22 18 26 26 27 26 25 26 28 28 28 27 26 27 26 22 14
3 2 3 6 6 7 9 14 13 14 11 7 7 9 10 12 12 11 12 13 16 15 15 12 11 11 12 10 9 10 21 22 16 9 10 11 11 12 13 12 13 12 10 9 10 12 11 11 10 8 11 11 7 1 8 9 11 12 11 10 15 24 25 25 26 26 26 26 27 27 26 25 19 12
2 2 2 3 7 10 12 12 13 13 14 8 7 8 8 9 12 12 13 13 13 14 13 13 12 12 11 9 8 9 11 12 10 11 9 9 10 12 13 13 12 11 11 11 13 9 9 9 10 9 8 8 9 8 7 8 9 11 8 6 8 17 21 22 22 27 25 25 26 25 24 23 18 12
1 2 2 2 6 11 11 11 12 12 12 11 6 6 7 9 14 16 11 14 18 12 12 12 11 10 11 10 10 10 9 10 10 11 12 10 11 11 12 11 11 14 13 11 17 9 6 7 10 9 7 6 7 6 4 4 8 9 9 6 8 9 9 11 10 13 21 25 25 25 24 23 22 15
1 1 2 2 6 11 10 10 11 11 11 10 5 7 13 16 18 13 10 10 10 10 10 10 10 11 12 12 10 11 10 10 11 12 12 12 11 10 11 12 13 10 13 13 16 9 7 8 9 9 8 8 7 0 4 4 4 8 8 8 9 8 9 9 10 11 9 9 10 14 18 23 22 22
1 2 2 3 8 9 9 9 10 9 10 6 7 12 13 14 17 13 7 9 8 9 10 10 11 11 11 11 12 12 12 12 12 12 10 13 13 12 13 12 11 12 12 10 8 7 6 7 8 9 9 8 9 3 2 3 4 6 7 8 8 8 7 8 10 9 8 9 11 22 21 23 24 23
1 1 2 4 8 7 8 8 8 9 7 6 10 10 12 13 12 6 7 6 7 8 8 9 9 10 10 10 12 12 13 11 13 11 13 12 14 14 12 12 13 10 9 6 6 6 5 7 9 9 9 9 8 6 1 1 2 3 4 5 7 7 7 8 10 10 10 10 10 8 9 9 9 11
1 3 6 6 6 7 7 8 7 6 7 10 9 10 12 10 4 5 6 7 7 8 9 9 9 9 9 9 10 12 12 12 11 12 10 11 11 12 11 11 9 9 5 4 5 5 6 6 8 10 9 8 8 2 5 3 1 2 3 3 7 6 7 7 8 9 9 9 9 8 8 7 9 8
4 5 5 5 5 6 5 3 2 1 3 9 9 10 9 4 5 5 6 7 8 8 9 9 10 11 11 11 10 11 10 10 11 11 12 11 11 11 11 11 11 7 3 4 6 6 7 7 7 8 9 6 3 3 4 7 3 4 6 6 7 8 7 7 8 8 9 9 9 8 8 9 7 6
4 4 3 1 3 3 5 4 5 4 5 4 4 3 3 4 5 5 5 6 8 8 9 10 10 9 10 10 10 9 11 10 9 8 11 12 11 12 11 10 10 11 8 5 6 7 7 8 8 7 6 3 4 4 4 4 7 7 3 4 3 7 3 7 8 9 8 9 9 9 8 9 8 8
3 2 3 2 1 0 1 1 1 2 3 4 5 4 4 5 5 6 7 7 5 6 7 9 9 9 9 11 10 11 10 9 9 10 10 11 12 11 11 9 10 10 11 9 8 7 7 7 8 7 6 5 4 3 7 6 5 4 5 6 7 6 5 7 8 7 7 9 10 9 8 7 6 5
3 1 0 1 0 1 3 3 4 4 5 5 5 4 4 5 5 4 4 5 6 7 7 8 9 10 9 9 10 9 9 9 9 9 10 9 11 10 9 9 9 10 11 12 10 8 7 7 7 7 7 8 8 6 3 7 5 4 6 5 6 7 5 5 7 8 7 10 9 8 8 7 5 5
4 1 1 1 2 3 4 4 4 4 4 5 6 5 6 6 5 5 5 5 6 7 7 8 8 9 9 9 9 9 9 10 9 9 12 11 10 10 9 9 9 8 8 9 8 8 7 7 6 4 5 8 10 12 8 5 5 5 5 5 6 7 5 5 5 5 6 7 9 9 7 7 5 5
2 1 1 2 3 3 2 3 3 4 4 4 5 5 5 5 5 6 6 6 7 8 8 8 7 8 8 9 9 9 10 11 12 10 9 8 9 9 9 8 9 9 9 9 8 7 6 6 6 5 3 3 5 8 14 9 4 5 5 6 4 6 6 4 5 6 7 5 7 10 7 6 5 3
1 1 1 1 2 2 3 3 4 3 4 4 4 5 6 6 5 5 6 7 7 7 7 8 9 9 9 9 9 9 10 12 10 10 10 9 9 9 8 8 8 9 7 7 7 7 6 6 5 5 4 3 3 4 6 12 9 3 5 5 4 5 6 6 5 5 6 6 4 6 8 6 5 3
1 0 0 0 1 1 2 3 4 4 4 4 5 4 5 6 6 6 7 8 7 7 8 8 8 9 9 10 10 9 9 10 10 10 9 10 8 8 9 9 9 8 8 7 6 6 5 5 5 3 3 3 3 3 3 4 10 11 3 5 5 4 5 6 6 7 5 4 5 4 6 7 4 3
1 0 0 0 0 1 1 3 3 4 4 4 4 5 5 5 6 7 7 6 7 7 7 7 8 8 8 9 10 10 10 8 9 9 9 8 9 9 9 9 9 8 7 7 6 5 5 5 5 4 3 2 3 3 2 1 3 5 5 3 5 4 3 6 7 6 5 5 6 4 4 6 5 3
1 1 1 1 1 1 2 3 3 4 4 4 4 5 6 5 5 6 6 6 7 7 8 8 8 9 10 9 9 9 11 11 10 9 9 7 8 9 9 9 9 8 7 7 6 6 6 5 6 5 5 1 4 2 3 4 4 2 5 8 4 4 3 5 6 6 5 5 6 6 5 3 5 7
3 1 2 1 1 1 2 3 4 4 5 5 5 5 5 6 6 6 7 7 7 7 8 8 9 10 9 9 9 9 9 10 10 9 9 9 9 9 9 8 8 8 7 7 6 6 6 6 6 6 4 1 4 6 7 7 4 4 5 5 5 4 3 3 5 7 6 4 6 7 6 4 4 3
3 2 2 2 1 2 2 3 4 4 5 5 5 5 5 5 6 6 6 7 7 8 8 8 9 9 9 10 9 10 10 9 8 8 8 8 10 10 10 10 7 6 7 7 5 5 6 6 6 7 4 3 5 6 6 5 5 3 3 4 6 9 7 6 3 2 5 5 5 6 6 4 3 2
3 3 4 3 3 3 4 4 5 4 5 5 5 5 5 5 5 9 8 8 7 7 7 8 9 8 9 8 9 8 9 9 9 8 9 8 9 9 10 6 6 6 5 5 5 5 6 5 5 3 3 1 2 3 3 5 7 5 4 3 3 7 10 9 9 8 6 5 7 7 4 3 3 3
3 3 4 4 2 4 4 5 4 4 5 5 5 4 4 5 5 6 5 6 6 6 7 8 8 8 8 8 8 8 8 8 8 9 8 8 8 8 8 6 5 4 3 4 4 4 5 5 4 4 4 4 3 2 5 5 5 5 5 5 4 3 5 10 12 13 10 8 5 4 4 5 5 3
4 4 5 4 4 4 4 5 5 4 5 5 5 4 4 5 5 6 5 6 6 6 7 7 7 8 9 9 8 8 8 8 8 8 8 8 8 7 6 6 4 3 4 4 4 5 5 5 5 4 4 4 2 5 6 6 5 4 4 5 3 5 5 4 4 7 8 8 6 5 6 7 4 3
5 5 5 4 4 5 5 5 5 5 5 5 3 3 4 4 5 5 5 5 5 6 7 8 8 8 9 8 8 8 8 10 9 8 7 7 7 6 5 4 4 3 4 4 3 4 4 4 4 5 6 5 4 4 5 5 5 4 4 5 6 6 4 2 4 4 3 3 12 13 6 4 2 1
Wind_Direction
59 55 49 51 30 15 10 7 10 356 357 359 352 341 349 338 314 325 315 314 11 295 213 352 298 85 30 333 329 329 317 313 320 321 319 316 314 315 316 316 317 317 317 319 319 317 314 312 311 310 309 308 307 305 304 303 302 299 298 297 295 295 292 292 290 287 287 285 284 285 285 285 283 283
62 63 57 45 37 8 20 8 1 10 356 351 350 347 334 337 309 291 308 298 312 276 316 135 317 321 331 352 322 329 322 318 324 322 318 316 314 316 316 315 317 318 319 320 320 317 314 313 311 311 310 309 309 308 306 305 302 301 300 299 298 297 294 293 293 294 292 289 286 285 285 285 287 285
63 62 60 47 36 16 13 3 2 4 19 351 354 347 335 329 309 295 295 299 273 88 325 313 352 316 320 333 324 317 325 323 327 325 320 317 315 316 317 315 316 319 320 321 321 319 315 314 312 311 311 309 309 308 307 305 305 302 300 299 298 298 297 299 299 299 298 294 291 288 286 284 284 285
64 62 56 40 24 4 11 12 3 356 358 10 356 342 329 317 301 295 288 270 282 305 307 302 313 336 319 325 335 329 326 324 323 322 319 316 317 318 315 316 314 317 320 320 320 317 314 312 311 311 310 309 308 308 306 305 304 302 301 301 301 302 303 302 301 299 298 295 292 293 290 287 287 288
61 64 62 46 24 25 25 7 356 358 355 353 339 313 305 287 283 286 286 288 294 300 270 282 303 328 328 322 344 329 326 325 324 321 316 315 313 313 312 312 312 315 320 321 318 316 314 314 312 311 311 309 308 306 306 305 305 305 304 303 302 301 300 301 302 304 308 303 302 299 294 290 288 287
61 78 59 38 28 27 25 4 1 352 346 354 352 339 337 297 298 283 299 288 293 297 311 316 315 312 342 313 329 327 325 322 321 322 324 318 313 310 307 308 311 316 321 320 318 317 317 315 314 313 312 310 308 307 307 306 304 305 305 304 302 301 300 301 304 303 305 305 302 302 297 294 291 289
49 52 49 39 29 18 21 13 355 348 351 344 351 333 318 314 293 290 268 290 300 304 303 308 314 323 325 322 320 323 315 310 314 316 321 323 321 316 314 314 312 313 320 320 317 315 315 315 314 314 313 312 312 311 310 307 305 305 306 305 303 303 301 299 301 303 301 302 302 301 299 295 295 291
51 54 46 33 29 26 24 4 357 353 353 348 341 322 315 297 298 284 279 257 276 297 302 309 318 321 323 320 322 320 315 319 321 317 311 309 305 306 309 311 315 314 319 319 314 311 312 313 313 314 313 311 310 310 308 307 306 308 306 305 305 303 302 301 301 302 299 299 301 297 294 291 286 287
56 46 49 27 26 24 21 1 358 351 348 344 335 331 318 315 298 292 282 279 272 288 294 301 306 312 307 305 307 318 323 322 320 317 312 311 313 308 298 294 296 304 314 310 306 304 307 309 309 313 313 313 312 309 307 306 306 304 302 303 303 302 301 298 296 298 298 298 297 295 290 288 285 279
50 50 35 28 28 22 22 353 342 341 338 333 334 328 322 313 308 307 301 290 291 284 286 293 303 311 318 318 316 324 326 319 316 315 313 315 318 317 316 316 317 315 308 309 306 305 308 310 313 315 313 314 316 314 310 307 302 299 298 298 298 297 296 294 298 299 298 298 295 291 287 282 277 275
51 45 38 29 25 20 7 351 335 329 327 331 327 319 317 314 316 315 312 308 300 296 296 293 289 299 303 308 312 321 320 308 307 312 317 313 315 314 313 313 318 321 313 303 300 303 309 313 312 308 307 311 309 309 311 308 304 298 296 295 296 296 295 297 295 297 300 301 300 293 286 275 269 271
45 40 35 28 18 11 348 342 333 336 332 334 332 316 317 318 322 319 316 311 306 302 297 298 306 302 304 311 296 302 314 315 308 318 322 316 319 318 312 308 313 317 310 310 313 311 317 314 309 303 304 305 305 304 303 301 298 295 294 296 296 298 299 298 299 302 306 306 302 295 277 270 260 257
40 34 27 22 7 356 5 5 357 350 348 337 326 323 325 323 319 310 305 305 304 300 304 303 297 304 307 306 319 323 327 326 316 317 317 305 302 307 308 306 301 300 311 306 306 306 318 314 314 309 311 309 309 305 305 305 300 296 293 296 300 304 306 304 303 306 306 304 327 327 276 256 253 130
41 32 27 9 360 6 12 2 353 351 345 341 334 324 326 320 316 313 309 307 304 304 307 309 318 318 313 314 319 313 306 305 306 307 312 310 312 307 301 300 308 317 307 309 310 306 313 312 311 310 312 307 308 306 305 303 300 295 300 306 308 311 312 309 305 301 306 345 28 12 54 106 111 107
29 22 23 10 360 2 359 347 346 342 343 337 333 328 324 321 319 318 313 305 308 307 298 302 306 301 304 306 308 305 308 310 310 307 306 305 309 311 316 315 312 314 322 315 311 308 314 313 310 312 312 308 309 308 305 302 303 306 311 312 316 318 315 309 303 299 290 79 64 56 62 73 87 100
42 27 16 359 3 356 345 334 322 314 326 333 329 326 321 318 313 307 304 307 309 311 308 307 304 303 297 303 307 310 313 311 307 305 305 307 311 315 312 305 306 313 316 308 306 300 310 311 307 308 310 310 309 308 308 310 309 312 314 317 321 321 320 315 309 144 123 97 88 81 82 83 80 80
47 32 15 3 357 347 338 327 313 310 298 310 321 323 323 319 315 312 309 305 302 304 302 299 299 303 307 306 307 315 312 311 304 305 304 313 317 309 299 301 303 306 311 303 302 304 309 313 310 313 314 311 311 312 312 312 312 315 316 317 319 321 334 25 77 113 105 101 95 91 88 85 89 92
41 22 24 6 352 337 328 320 313 310 316 323 326 328 322 311 310 312 310 308 304 297 288 289 294 301 304 300 303 305 306 303 301 308 311 317 306 300 298 298 296 297 305 299 302 301 307 316 316 315 317 317 315 313 310 313 316 316 315 312 312 319 338 71 73 80 87 90 92 92 93 94 91 93
39 15 29 10 338 324 327 316 328 335 335 333 330 322 313 315 317 315 305 291 284 286 288 287 287 294 298 294 296 298 301 304 314 315 303 299 297 295 293 291 294 300 305 305 310 305 311 323 317 315 321 323 314 314 313 318 315 312 311 310 303 311 174 98 90 85 84 86 88 89 90 89 89 90
22 28 26 15 325 319 318 314 340 343 343 333 326 321 316 318 314 296 289 297 305 303 301 296 297 297 298 303 305 312 320 318 304 295 299 305 306 306 304 304 310 300 316 312 307 309 317 321 316 315 323 318 313 317 324 315 318 317 320 314 287 166 127 104 100 94 92 94 93 93 92 92 92 91
20 14 15 343 312 310 300 327 344 344 347 334 327 326 328 323 318 302 270 287 304 305 306 307 305 305 308 313 319 320 317 313 329 337 324 320 321 315 317 314 311 309 316 309 318 328 316 324 325 316 318 319 310 322 324 324 324 331 335 38 122 123 103 99 99 98 96 94 93 92 91 90 88 86
34 5 353 342 316 322 313 341 346 347 348 337 333 336 330 326 326 322 323 316 306 304 302 300 301 305 312 315 313 310 318 337 344 321 317 316 311 314 311 311 311 303 306 313 349 322 315 320 323 317 315 310 300 320 333 338 338 337 12 76 90 94 95 93 93 93 91 88 87 86 86 85 81 75
30 335 316 349 342 341 338 344 348 348 350 340 349 340 326 323 324 328 334 333 330 331 332 329 330 322 322 315 309 317 333 332 327 315 308 312 313 309 308 305 307 304 310 325 340 315 317 323 323 330 319 317 311 104 349 347 344 345 345 49 77 87 89 92 91 87 86 88 89 90 89 87 83 80
354 311 262 321 339 343 344 348 348 350 351 354 355 333 320 318 325 334 332 331 331 325 324 319 321 317 318 320 326 332 326 322 318 326 318 312 310 307 305 302 300 299 306 314 326 315 308 316 310 322 300 303 317 341 357 347 353 340 336 40 53 80 83 83 85 86 87 89 89 88 88 86 85 86
329 273 270 262 329 343 348 350 349 350 353 354 349 317 327 333 329 333 330 329 330 322 317 315 319 323 329 330 328 325 324 323 324 323 321 313 309 306 304 301 300 300 302 308 323 331 313 316 305 312 307 296 280 314 324 341 357 344 345 23 58 60 69 70 76 78 86 88 89 89 87 85 84 86
270 291 281 266 336 347 351 352 352 354 354 352 340 337 339 337 339 338 331 320 319 316 319 322 326 333 334 330 329 328 325 325 324 321 315 315 311 305 302 304 307 301 312 322 333 330 312 302 306 307 305 307 299 210 319 345 344 348 357 33 51 58 68 75 74 73 68 71 77 87 90 89 86 83
310 259 296 334 340 349 353 355 0 0 358 353 343 346 346 347 342 337 317 315 317 320 324 328 330 331 330 328 328 327 324 321 319 316 313 311 311 309 305 303 309 311 311 316 330 325 303 283 292 295 297 295 294 297 22 351 344 353 22 39 50 57 62 77 81 79 75 79 83 88 89 90 90 87
304 311 345 343 345 355 357 2 5 3 358 353 353 354 354 351 341 323 320 319 319 319 322 329 328 326 326 322 320 320 318 315 312 311 316 312 313 311 310 317 317 315 313 323 328 318 295 280 286 282 285 288 287 276 198 337 31 349 26 38 51 49 45 64 78 73 68 68 66 60 59 50 57 76
270 346 350 354 359 2 0 7 2 357 349 356 356 358 356 349 320 325 324 324 326 333 335 329 319 314 316 312 303 302 300 301 307 316 307 309 308 310 311 308 309 314 333 335 325 313 302 284 283 288 288 283 275 240 133 135 98 12 346 65 59 21 43 56 72 79 77 72 71 68 64 69 72 66
34 15 19 9 13 1 358 10 326 328 336 352 355 357 354 332 331 325 328 329 339 333 328 324 321 316 311 310 305 299 304 315 322 316 321 325 323 327 326 325 326 331 341 345 337 322 317 307 289 291 286 293 307 127 138 131 89 39 50 76 104 74 38 58 69 73 77 74 67 65 61 61 56 47
54 38 18 19 24 5 4 16 10 7 352 341 339 334 334 329 323 320 318 333 331 326 321 317 313 310 307 303 310 326 328 319 313 325 328 322 323 322 323 321 320 326 337 348 339 329 334 331 324 309 318 352 32 50 45 65 104 109 57 7 8 95 100 76 75 77 82 83 77 72 68 64 50 43
73 54 8 23 345 279 307 321 345 348 352 340 337 337 329 318 313 312 321 322 310 305 304 299 299 304 317 325 327 324 322 315 323 329 323 324 321 323 322 324 328 328 327 337 341 340 339 346 348 351 9 8 39 52 73 65 68 72 80 76 82 78 77 93 94 83 85 92 77 67 62 56 49 34
49 73 47 216 323 15 11 1 1 350 350 343 339 332 322 324 322 319 335 331 323 315 312 312 314 317 320 320 321 316 315 321 324 320 320 320 319 317 324 323 322 332 333 331 337 336 341 337 358 6 28 39 31 27 56 93 54 61 93 94 93 84 75 73 96 103 99 85 80 79 70 53 38 52
88 51 94 34 35 13 13 359 352 345 346 337 339 333 337 333 320 328 328 315 316 314 312 309 316 319 320 319 321 320 319 315 316 320 329 323 320 323 329 327 327 329 327 321 323 328 331 332 334 348 24 53 52 44 32 57 92 82 74 84 93 97 82 87 75 75 80 99 110 91 72 62 44 34
99 95 41 7 10 16 2 340 338 338 338 330 329 328 327 318 325 328 322 317 318 316 311 312 314 316 319 319 321 322 322 320 319 319 320 319 323 326 328 325 327 330 332 325 324 325 325 326 333 332 335 3 51 46 46 41 70 76 84 70 71 96 93 72 85 81 88 80 91 98 88 78 62 5
67 127 88 10 5 356 360 330 329 323 316 319 323 323 327 326 327 325 319 317 316 309 311 318 322 323 324 322 321 320 320 320 316 316 320 327 327 326 325 326 325 326 326 318 315 315 318 318 327 339 343 359 44 35 356 24 47 18 94 108 87 95 94 87 77 76 79 78 61 104 106 106 100 45
157 207 141 215 314 351 326 309 304 301 312 318 318 313 312 316 319 315 307 313 304 306 314 320 320 321 321 321 320 317 316 320 319 319 321 324 324 325 326 327 330 330 327 317 309 312 327 319 326 342 356 2 52 48 2 323 48 51 27 102 105 89 112 105 94 73 44 66 65 69 112 119 106 62
183 212 185 219 251 280 291 290 300 310 315 317 306 303 302 300 304 308 309 312 311 315 319 322 317 318 319 322 322 322 321 317 311 311 315 320 329 331 331 327 327 330 323 315 321 336 339 340 349 339 354 104 138 142 131 4 18 23 47 53 115 117 106 108 95 97 73 47 78 73 93 103 103 24
196 189 212 230 255 272 288 291 298 302 300 298 302 305 309 307 309 313 318 314 314 320 324 323 322 321 323 322 321 320 322 323 324 320 319 323 330 328 328 330 326 325 329 326 334 345 352 4 351 343 331 193 174 185 144 122 78 10 68 82 80 102 83 99 104 101 96 96 81 78 70 94 122 115
233 214 213 201 246 253 265 270 277 272 281 285 291 294 299 306 311 311 310 313 319 324 321 320 320 321 320 322 320 317 313 314 314 314 319 327 329 328 327 328 327 323 325 327 341 339 354 347 343 331 319 339 95 98 100 98 94 66 69 96 86 65 100 121 117 119 101 105 115 105 101 64 64 348
206 208 237 228 230 250 244 257 258 270 277 280 285 292 296 297 302 297 298 314 321 320 323 322 323 322 321 321 322 321 319 317 312 310 320 325 327 330 329 333 328 337 333 329 341 342 344 330 326 18 42 60 105 111 97 85 77 40 62 61 90 101 98 95 86 90 122 138 113 104 102 104 107 58
200 215 231 222 215 240 237 247 260 266 275 277 279 283 294 298 285 301 307 309 309 315 319 323 323 322 318 316 315 316 316 314 314 319 327 328 327 328 331 340 334 337 357 342 331 317 310 325 337 11 1 5 330 32 78 119 121 104 88 58 56 102 105 103 101 108 115 128 129 115 100 62 32 72
223 222 231 234 226 234 238 247 252 256 265 270 275 277 286 291 292 297 298 306 314 320 323 321 320 317 316 314 313 314 312 310 314 319 326 330 330 329 329 331 328 321 324 310 308 315 328 338 355 11 36 35 29 67 115 113 113 106 103 96 87 71 97 108 118 124 125 117 104 144 176 164 139 180
218 221 233 226 227 237 240 242 248 249 254 258 264 274 280 283 292 292 296 300 310 318 319 319 317 319 316 313 311 311 316 315 317 321 326 327 326 322 318 318 320 325 332 341 337 345 341 358 7 19 56 35 24 102 116 117 105 97 105 106 96 91 88 44 63 80 69 60 76 149 156 176 187 188
220 221 226 229 226 236 236 239 240 251 250 260 264 276 282 284 283 287 291 293 300 309 317 318 317 314 313 313 317 320 317 319 318 316 322 322 321 316 313 315 319 332 340 343 3 348 354 2 12 35 58 47 44 79 87 89 96 104 94 98 88 35 21 41 86 86 51 360 11 22 61 41 232 235